Vertical_Velocity
1 1 -1 -1 -2 -2 -1 1 2 0 1 0 0 0 0 1 0 4 -3 -0 -1 0 0 2 -1 -1 -1 1 1 -3 -1 -1 0 -0 1 -2 1 2 1 -0 -1 0 -2 -2 -1 -1 -0 -1 -2
-2 -1 -2 -2 2 1 1 1 -1 0 0 0 1 0 -1 2 -0 1 -0 -1 -0 -1 0 -0 0 -0 -0 0 1 -3 -1 -0 1 -0 -0 -2 1 2 -0 -1 -1 -2 -2 0 2 0 -0 -0 0
-0 -0 -1 -0 1 -2 -0 -1 1 0 -1 -1 0 -1 1 1 1 1 2 2 -0 0 1 1 -1 0 1 -1 3 -1 -1 -0 0 -0 -2 -2 2 -1 0 -1 -2 -2 0 -1 -0 3 -0 0 0
0 -2 -0 0 -1 2 0 0 -2 2 -0 -2 -1 1 -2 0 -0 2 1 -1 1 -0 0 1 0 0 1 -0 2 -2 -1 -0 -1 -0 -1 -1 1 -2 1 -2 -3 0 2 -0 1 0 0 -0 1
-3 -1 -0 1 1 2 1 1 1 1 -0 -1 1 -1 -0 1 0 -2 -0 -1 2 0 0 0 0 1 -1 -1 1 -1 -2 -0 -0 -0 1 1 -2 -1 1 0 -1 1 -2 -1 -1 -1 1 -1 1
-2 -2 3 4 0 -1 1 0 0 0 -0 -1 0 -1 0 -0 -2 -0 -1 0 -0 1 0 -1 -1 -1 -0 -1 3 -0 0 -0 0 -1 -0 0 0 -1 -0 -2 -1 -1 1 1 -1 0 -0 -1 -1
-0 -1 0 -2 -1 -0 1 -0 -0 0 1 -1 -2 -1 -1 -3 -0 -1 -1 0 -1 -0 0 1 -1 -0 -1 -1 1 -1 -1 -0 1 0 0 -1 -2 0 -3 -4 -1 0 -0 0 -0 1 -1 0 -1
-1 -2 -0 -0 -2 -1 -1 -2 -1 -0 1 1 -1 -1 -0 -1 -0 -0 -2 -1 0 -3 -0 1 -0 -2 -0 -0 -0 1 -1 -0 2 -2 1 -1 -2 -3 -2 -0 -3 -4 -2 -0 -1 1 1 2 -3
-0 -1 0 -1 1 -0 -0 0 -1 -0 -1 0 -0 -2 -1 -1 -0 -0 -2 -2 -2 -3 -1 -1 -1 -1 -1 0 -1 -1 -0 -1 1 -1 -1 -1 -1 -3 -4 -4 -3 -1 -2 -2 -1 1 0 1 1
0 -1 1 -1 1 0 0 -2 1 -1 -0 -1 1 -1 -1 -0 -1 -0 -1 -1 -1 -2 -2 -2 -1 -2 -1 -1 -1 -1 -0 -1 -2 -2 -1 -0 -0 -3 -2 -1 -2 -2 -2 -1 -1 -1 0 1 1
1 -0 1 0 -2 -1 -1 -0 -1 -0 1 1 1 -1 -1 -1 -1 0 -2 -2 -0 -1 -1 -1 -0 -1 -1 -1 -1 -0 0 0 -1 -2 -2 -0 0 -1 -0 -1 -1 -1 1 -1 -0 -0 -0 1 1
-3 2 3 1 0 1 -0 -1 -1 -0 -0 -0 -2 2 1 -3 -1 -0 -2 -3 -1 -1 -2 -1 -0 -1 -2 -1 -1 -1 -0 0 -1 -1 -1 -0 -0 0 -0 -1 -1 -1 -0 -0 -1 1 -0 -0 1
2 0 1 1 -1 1 -1 -2 -1 -1 2 -0 -2 -0 -1 2 -1 -3 -1 -0 -0 -1 -3 -3 -2 -2 -1 -1 -0 -1 -0 -1 -1 -0 0 -1 1 0 -2 -0 1 -2 1 1 0 1 1 0 2
0 -1 -2 1 -1 -2 -3 -2 -0 1 0 1 1 -0 -0 -1 -1 -2 -2 -0 -0 -1 -1 -1 -1 -1 -1 -0 -1 -1 0 -0 -1 -1 -0 -0 1 1 -0 -1 -0 1 1 1 1 -0 -2 2 -3
-1 -1 1 1 -0 1 -3 -1 -1 1 1 0 1 -1 -1 -0 -3 -3 -1 -1 -1 -1 -0 -0 0 -1 -2 -2 -1 -1 -0 1 0 1 1 -0 -0 -0 2 0 0 1 0 -1 -3 5 7 2 1
-0 -6 5 4 4 2 0 -2 -1 -2 1 2 0 0 -3 -2 -1 -2 -2 -1 2 1 0 -0 -1 -1 -1 -1 -1 -1 0 0 -0 -1 -1 1 -0 -1 1 1 -0 0 -0 -0 -2 -1 1 -3 -1
2 3 3 2 2 0 0 3 3 0 -1 1 2 -1 0 -2 -2 -2 -3 -2 -0 2 2 1 1 0 0 -0 -0 -0 -0 -1 -0 1 1 -0 -1 -1 0 -0 0 -1 -1 1 -1 -1 3 1 -3
1 -0 3 1 2 2 4 2 2 0 0 -1 1 -1 -1 1 -2 -1 -1 -2 -2 -1 -0 -1 -0 -0 -0 -1 -1 -0 -1 -1 0 0 0 -1 -1 -0 -0 0 -1 -0 0 -3 -0 -2 -3 -4 -1
1 -2 3 -0 1 -2 -0 3 1 1 1 1 -0 -1 -1 1 1 -0 -0 -2 -2 -1 -0 -1 -0 0 -0 -0 -1 -0 -1 0 -0 -1 -1 -1 -1 0 -1 -1 -0 -1 -1 -2 -1 1 0 -1 0
-0 1 1 -0 -0 -0 -2 1 2 0 -1 -1 -1 -1 0 -2 3 2 -0 -1 -2 -2 -0 1 0 -0 0 -1 0 -1 -1 -1 -1 -2 -2 -3 -4 -2 -2 -2 -3 -2 -5 -2 -1 3 -0 -0 -1
0 2 -1 -2 -4 4 -1 -1 1 -1 1 0 -0 -0 -1 -1 -1 2 3 1 -0 -2 -2 -1 -1 -1 -0 0 -0 -1 -1 -0 -1 -2 -2 -1 -1 -2 -1 -2 0 -2 4 -0 2 1 1 -1 1
2 -3 0 1 -3 3 1 17 -8 -2 1 1 1 -0 -2 0 -0 -0 2 0 -0 -1 -1 -1 -1 -0 -1 -1 -2 -3 -3 -2 0 -0 -1 -0 -1 -2 -2 -1 -1 -0 -1 -1 -1 1 -4 1 0
1 -4 -2 2 -4 -3 -1 -11 -9 -1 -1 -0 2 2 0 -1 -1 -0 -1 1 -1 -1 -1 -1 0 0 1 1 0 -2 -1 -0 -2 -2 -2 -1 -1 -4 -3 -3 -1 -1 -1 -4 0 -4 -4 0 3
-1 -0 -2 2 2 -11 -4 -10 18 6 4 3 -1 -0 0 -1 -2 -1 -2 -0 -0 -0 0 -0 -0 -2 -1 -2 -3 -4 -3 -3 -1 -1 -2 1 -2 -3 -2 -1 -3 -2 -1 3 0 -0 -2 -2 -2
2 3 -4 1 10 28 -12 -1 22 1 1 1 3 3 2 -0 -2 -3 -3 -2 -1 1 1 -1 -1 -2 -2 -3 -4 -4 -3 -2 -2 -0 -1 -1 -1 -2 -3 -4 -5 -6 -0 -6 -4 5 -6 -5 -1
1 2 -2 -3 -4 10 -9 0 31 2 -1 -1 4 4 2 2 -1 -1 -1 2 2 1 -1 -1 -2 -1 -1 -3 -3 -4 -3 -2 -1 1 1 -1 -3 -3 -3 -3 -2 -1 0 -0 2 0 -1 0 1
8 -4 5 -1 2 -3 2 -2 4 2 -0 -1 2 5 1 1 3 1 2 1 2 2 2 1 1 -1 -2 -2 -3 -2 -1 -1 -1 -1 -2 -2 -2 -2 -2 -2 -2 -1 -1 1 -5 -1 -6 -2 -1
-9 -0 -1 -3 -5 -2 2 -4 -2 -2 -1 1 -0 3 3 -2 2 -1 -1 -1 -1 2 1 1 0 -0 -1 -2 -2 -2 -2 -1 -1 -0 0 0 2 2 -0 -2 -1 0 0 0 -0 4 3 3 4
-5 -2 -2 3 3 3 1 -7 23 -7 -4 3 2 -4 5 -3 -1 1 -3 -2 -2 -2 0 -0 0 1 -0 -2 -2 -1 -1 -1 -1 -1 -1 -0 -0 0 1 0 0 2 2 2 0 -1 3 1 1
2 -3 -2 1 -3 -6 -6 -13 12 -1 -4 4 1 4 -3 -1 -1 -4 1 1 -1 -2 -0 -0 -0 0 -0 -1 -1 -3 -2 -2 -1 0 -0 -1 -1 -1 0 -1 -2 -3 -3 -2 2 0 -2 -5 -5
Height
5900 5901 5901 5901 5904 5902 5902 5903 5904 5904 5905 5904 5904 5904 5905 5906 5907 5911 5909 5909 5910 5911 5912 5912 5912 5913 5914 5914 5914 5915 5916 5915 5914 5914 5915 5915 5915 5914 5915 5915 5914 5913 5911 5910 5909 5908 5907 5906 5906
5900 5901 5902 5902 5904 5903 5903 5904 5904 5904 5904 5904 5905 5905 5905 5906 5907 5908 5909 5910 5911 5911 5912 5913 5914 5914 5916 5915 5916 5917 5918 5917 5916 5916 5916 5916 5916 5916 5916 5916 5915 5914 5913 5912 5910 5909 5907 5906 5906
5900 5902 5903 5903 5903 5904 5904 5903 5904 5904 5904 5904 5905 5905 5905 5906 5907 5908 5910 5911 5911 5911 5913 5914 5916 5917 5917 5917 5917 5918 5919 5918 5917 5918 5918 5918 5918 5917 5917 5917 5916 5915 5914 5913 5911 5910 5908 5908 5907
5902 5903 5904 5905 5905 5905 5905 5904 5904 5905 5905 5905 5904 5905 5906 5907 5907 5908 5910 5911 5910 5912 5914 5914 5917 5918 5918 5918 5919 5920 5920 5919 5919 5920 5920 5920 5919 5919 5920 5918 5918 5917 5915 5913 5912 5911 5910 5910 5908
5902 5903 5904 5906 5905 5906 5905 5905 5905 5905 5904 5904 5904 5906 5906 5907 5907 5909 5911 5911 5912 5913 5914 5915 5917 5918 5919 5919 5920 5921 5921 5921 5922 5922 5923 5923 5922 5922 5921 5921 5920 5919 5917 5915 5913 5912 5912 5911 5910
5903 5905 5907 5907 5905 5905 5904 5905 5904 5904 5904 5904 5905 5905 5906 5907 5908 5910 5910 5911 5912 5913 5914 5916 5917 5918 5920 5921 5921 5922 5923 5924 5924 5924 5925 5925 5924 5923 5923 5922 5922 5920 5919 5916 5916 5915 5915 5914 5913
5905 5906 5907 5907 5907 5906 5904 5904 5905 5904 5904 5903 5904 5904 5905 5907 5908 5909 5910 5912 5913 5913 5916 5917 5919 5920 5921 5923 5923 5924 5925 5926 5926 5927 5927 5926 5926 5925 5926 5925 5924 5923 5922 5920 5919 5917 5917 5917 5915
5906 5908 5909 5909 5909 5907 5906 5905 5905 5905 5904 5903 5902 5902 5904 5906 5907 5909 5910 5912 5914 5914 5916 5919 5920 5921 5922 5924 5924 5925 5926 5927 5928 5928 5928 5928 5928 5928 5927 5927 5927 5926 5923 5922 5921 5920 5920 5920 5918
5909 5911 5911 5911 5910 5909 5907 5906 5905 5903 5901 5900 5901 5901 5902 5905 5907 5909 5911 5913 5914 5915 5917 5919 5921 5923 5924 5925 5926 5926 5928 5928 5929 5930 5930 5930 5929 5929 5929 5929 5929 5928 5926 5926 5925 5923 5923 5922 5921
5911 5912 5913 5912 5912 5911 5909 5908 5905 5903 5899 5897 5898 5899 5902 5905 5908 5910 5912 5913 5915 5916 5918 5921 5923 5924 5925 5926 5927 5928 5929 5930 5930 5931 5932 5932 5932 5932 5932 5932 5931 5929 5929 5929 5927 5926 5925 5924 5922
5914 5914 5915 5914 5912 5911 5911 5909 5907 5903 5900 5898 5899 5900 5903 5905 5908 5910 5913 5914 5916 5917 5919 5921 5923 5925 5926 5927 5928 5929 5930 5931 5932 5933 5934 5934 5934 5933 5933 5933 5933 5932 5931 5930 5928 5927 5925 5925 5923
5917 5917 5917 5916 5914 5913 5912 5911 5909 5905 5903 5901 5901 5904 5905 5906 5909 5911 5913 5915 5917 5919 5920 5922 5924 5925 5927 5928 5930 5931 5932 5933 5934 5934 5935 5935 5935 5934 5934 5934 5934 5934 5932 5931 5929 5928 5927 5925 5923
5919 5919 5918 5917 5916 5914 5914 5913 5910 5908 5905 5904 5904 5906 5907 5908 5910 5912 5915 5917 5918 5920 5922 5923 5925 5927 5927 5929 5930 5931 5932 5933 5934 5934 5935 5936 5935 5935 5935 5935 5935 5934 5934 5932 5931 5929 5928 5925 5924
5921 5920 5920 5919 5918 5916 5915 5914 5911 5910 5908 5908 5909 5910 5910 5911 5912 5915 5917 5918 5920 5921 5923 5925 5926 5927 5929 5930 5931 5932 5933 5933 5934 5934 5935 5936 5936 5936 5936 5937 5937 5936 5935 5934 5933 5931 5929 5927 5925
5925 5924 5924 5923 5921 5919 5917 5916 5914 5911 5911 5912 5913 5913 5913 5914 5915 5917 5919 5921 5922 5924 5925 5926 5927 5928 5929 5930 5931 5932 5934 5934 5935 5936 5936 5936 5936 5936 5937 5938 5938 5937 5935 5934 5932 5930 5929 5926 5924
5929 5928 5928 5927 5925 5922 5920 5918 5916 5914 5913 5913 5915 5916 5916 5916 5918 5919 5920 5922 5923 5925 5926 5927 5928 5929 5930 5931 5932 5933 5934 5935 5935 5936 5937 5937 5937 5937 5938 5939 5938 5936 5934 5933 5931 5929 5927 5924 5923
5932 5932 5929 5929 5926 5924 5923 5921 5920 5918 5915 5915 5916 5917 5918 5918 5919 5920 5921 5922 5924 5925 5927 5928 5929 5930 5931 5932 5933 5933 5934 5934 5935 5936 5936 5937 5937 5938 5939 5937 5935 5933 5932 5930 5929 5927 5925 5923 5921
5931 5930 5930 5929 5929 5927 5925 5923 5922 5920 5917 5916 5916 5917 5918 5919 5920 5921 5921 5922 5924 5926 5927 5928 5929 5930 5931 5932 5933 5933 5934 5934 5935 5935 5935 5935 5936 5937 5936 5935 5932 5931 5930 5929 5927 5925 5923 5922 5920
5930 5931 5931 5930 5929 5928 5927 5925 5923 5922 5920 5917 5916 5917 5917 5918 5920 5921 5922 5923 5924 5925 5926 5928 5929 5929 5930 5931 5932 5932 5933 5933 5933 5933 5933 5934 5934 5935 5933 5932 5931 5930 5928 5927 5925 5924 5923 5921 5919
5930 5931 5931 5930 5929 5929 5928 5928 5926 5923 5921 5919 5917 5916 5916 5917 5919 5920 5921 5922 5923 5924 5925 5927 5928 5928 5929 5929 5930 5931 5931 5932 5932 5932 5933 5933 5933 5933 5932 5930 5929 5929 5927 5926 5924 5924 5922 5921 5919
5930 5930 5929 5930 5929 5931 5930 5930 5927 5925 5923 5921 5918 5916 5916 5916 5917 5918 5920 5921 5922 5923 5923 5925 5926 5926 5927 5928 5928 5929 5930 5930 5931 5931 5931 5932 5931 5930 5929 5927 5927 5926 5925 5925 5924 5923 5921 5920 5919
5927 5925 5926 5928 5929 5930 5929 5932 5928 5926 5923 5921 5919 5917 5916 5916 5916 5917 5918 5919 5920 5921 5922 5924 5925 5925 5927 5927 5928 5929 5930 5929 5929 5929 5929 5929 5929 5927 5927 5925 5925 5924 5924 5924 5924 5924 5923 5922 5921
5923 5922 5925 5926 5928 5930 5931 5932 5928 5927 5924 5921 5919 5918 5916 5915 5915 5915 5916 5918 5919 5920 5921 5923 5924 5924 5925 5926 5927 5927 5927 5927 5928 5929 5930 5930 5929 5927 5925 5924 5923 5924 5924 5925 5925 5925 5924 5923 5922
5920 5923 5925 5927 5928 5931 5929 5930 5932 5930 5926 5923 5920 5918 5917 5916 5915 5915 5915 5916 5918 5920 5921 5922 5922 5922 5923 5925 5925 5926 5927 5928 5928 5929 5929 5930 5929 5927 5926 5924 5924 5924 5925 5925 5926 5926 5926 5924 5923
5916 5921 5924 5928 5930 5931 5925 5928 5929 5927 5925 5923 5921 5919 5917 5917 5917 5916 5915 5915 5917 5920 5921 5921 5921 5921 5922 5924 5925 5926 5927 5928 5929 5930 5930 5930 5929 5929 5928 5928 5928 5928 5928 5928 5927 5927 5926 5924 5923
5911 5914 5918 5921 5925 5928 5923 5926 5930 5925 5923 5922 5922 5920 5918 5918 5918 5918 5917 5917 5919 5920 5921 5922 5922 5922 5923 5925 5925 5926 5927 5929 5929 5930 5930 5932 5932 5932 5932 5932 5932 5932 5931 5930 5928 5928 5927 5925 5924
5906 5903 5911 5913 5918 5917 5921 5923 5925 5922 5921 5921 5921 5921 5920 5918 5918 5918 5918 5919 5920 5922 5922 5923 5924 5924 5924 5925 5925 5926 5927 5928 5929 5930 5932 5933 5933 5932 5932 5932 5931 5931 5930 5929 5928 5927 5926 5925 5922
5897 5900 5902 5905 5908 5911 5915 5918 5920 5918 5918 5919 5919 5919 5920 5918 5918 5917 5918 5919 5920 5922 5923 5924 5924 5925 5925 5925 5926 5927 5927 5928 5929 5931 5931 5931 5932 5932 5931 5930 5929 5928 5928 5927 5927 5925 5923 5922 5920
5886 5890 5893 5898 5903 5905 5909 5913 5916 5912 5914 5916 5917 5916 5918 5918 5918 5918 5917 5918 5920 5921 5923 5923 5923 5924 5925 5926 5927 5926 5926 5927 5929 5929 5930 5930 5931 5931 5930 5929 5927 5927 5926 5925 5923 5923 5921 5919 5916
5879 5881 5884 5889 5893 5894 5897 5903 5908 5904 5909 5911 5912 5913 5913 5915 5917 5919 5919 5919 5918 5919 5920 5922 5922 5922 5923 5924 5925 5925 5926 5927 5928 5928 5929 5929 5929 5929 5928 5927 5925 5923 5922 5921 5919 5917 5915 5913 5908